Regional & State Weather Roundups


398 
ASUS41 KLWX 011111
RWRLWX
REGIONAL WEATHER ROUNDUP
NATIONAL WEATHER SERVICE BALTIMORE MD/WASHINGTON DC
700 AM EDT SAT OCT 01 2016
Note: "FAIR" indicates few or no clouds below 12,000 feet
with no significant weather and/or obstructions to visibility.
 TC=TEMPERATURE CELSIUS
 * =Non NWS site. Station does not report precipitation (e.g. rain,
    snow, etc.), thunder, or fog.
DCZ001-MDZ009-015-VAZ040>042-051-053>054-011200-
WASHINGTON METRO
  
CITY           SKY/WX    TMP DP  RH WIND       PRES   REMARKS
WASHINGTON NAT DRIZZLE   64  64 100 NE13      30.11S                  
DULLES         DRIZZLE   62  60  93 NE7       30.11R FOG              
ANDREWS AFB    CLOUDY    63  63 100 E12       30.09S FOG              
FT BELVOIR     CLOUDY    64  62  94 VRB5      30.09R FOG              
QUANTICO       LGT RAIN  67  64  90 VRB3      30.10R                  
COLLEGE PARK*  CLOUDY    61  59  94 NE6       30.11S                  
LEESBURG*      LGT RAIN  61  61 100 NE10      30.12R                  
MANASSAS*      RAIN      63  63 100 NW3       30.10R                  
GAITHERSBURG*  CLOUDY    61 N/A N/A NE3       30.15S                  
$$
MDZ006>007-011-014-011200-
BALTIMORE METRO
  
CITY           SKY/WX    TMP DP  RH WIND       PRES   REMARKS
BWI AIRPORT    DRIZZLE   61  60  97 E10       30.13R FOG              
MD SCIENCE CTR   N/A     61  59  93 MISG      30.13S                  
MARTIN STATE   CLOUDY    63  63 100 NE3       30.15R                  
ANNAPOLIS      CLOUDY    64  62  93 NE10      30.12R                  
FORT MEADE*    CLOUDY    61  59  94 E8G16     30.14S                  
$$
MDZ012-015-019>023-011200-
MARYLAND EASTERN SHORE
  
CITY           SKY/WX    TMP DP  RH WIND       PRES   REMARKS
OCEAN CITY     LGT RAIN  67  67 100 NE15G21   30.11R                  
SALISBURY      CLOUDY    67  67 100 E12       30.11R FOG              
BAY BRIDGE AP* CLOUDY    63  63 100 MISG      30.11S FOG              
EASTON*        CLOUDY    64  63  94 E10G17    30.14F FOG              
$$
MDZ017>025-011200-
SOUTHERN MARYLAND
  
CITY           SKY/WX    TMP DP  RH WIND       PRES   REMARKS
PATUXENT RIVER CLOUDY    67  66  97 E14       30.07S                  
ST INIGOES     CLOUDY    70  68  93 NE13      30.06R                  
LEONARDTOWN*   CLOUDY    66  64  94 E6        30.09S                  
$$
MDZ003>005-011200-
NORTH CENTRAL MARYLAND
  
CITY           SKY/WX    TMP DP  RH WIND       PRES   REMARKS
FREDERICK*     LGT RAIN  59  59 100 NE9       30.16                   
HAGERSTOWN APT CLOUDY    58  56  93 N7        30.13S                  
$$
MDZ501>502-011200-
WESTERN MARYLAND
  
CITY           SKY/WX    TMP DP  RH WIND       PRES   REMARKS
OAKLAND*       FOG       50  50 100 SE9       30.15R VSB 1/2          
CUMBERLAND*    CLOUDY    59  59 100 CALM      30.18S                  
$$
VAZ025>031-011200-
SHENANDOAH VALLEY
  
CITY           SKY/WX    TMP DP  RH WIND       PRES   REMARKS
WINCHESTER*    LGT RAIN  59  57  94 CALM      30.13R                  
FRONT ROYAL*   CLOUDY    57  57 100 NE3       30.11S                  
LURAY*         CLOUDY   N/A N/A N/A CALM      30.13R                  
NEW MARKET*    CLOUDY   N/A N/A N/A N5        30.12R                  
STAUNTON*      CLOUDY    58  57  99 NE6       30.13S FOG              
WAYNESBORO*    CLOUDY    57  56  96 CALM      30.12S                  
$$
WVZ021-048>050-054>055-011200-
EASTERN WEST VIRGINIA PANHANDLE
  
CITY           SKY/WX    TMP DP  RH WIND       PRES   REMARKS
MARTINSBURG    CLOUDY    57  56  96 N7        30.12F FOG              
PETERSBURG*    CLOUDY    58  58  99 CALM      30.14R FOG              
$$
VAZ036>039-050-011200-
CENTRAL FOOTHILLS
  
CITY           SKY/WX    TMP DP  RH WIND       PRES   REMARKS
CHARLOTTESVILL CLOUDY    64  61  90 N5        30.09S FOG              
CULPEPER*      LGT RAIN  63  63 100 CALM      30.11R                  
ORANGE*          N/A     63  63 100 NW8       30.11R FOG              
GORDONSVILLE*  CLOUDY    63  63 100 NE5       30.08R                  
WARRENTON*     CLOUDY    63  59  87 NE8       30.09S FOG              
$$
VAZ055>057-011200-
NORTH AND CENTRAL PIEDMONT
  
CITY           SKY/WX    TMP DP  RH WIND       PRES   REMARKS
FREDERICKSBRG* CLOUDY    66  66 100 N5        30.06S                  
STAFFORD*      CLOUDY    64  64 100 N5        30.12F                  
$$
NCZ024-NYZ072-PAZ021-071-VAZ022-071-011200-
OTHER REGIONAL OBSERVATIONS
  
CITY           SKY/WX    TMP DP  RH WIND       PRES   REMARKS
NEW YORK CITY  CLOUDY    57  53  86 NE9       30.24S                  
PHILADELPHIA   CLOUDY    58  56  93 NE13G20   30.18S                  
PITTSBURGH     FOG       56  56 100 E5        30.09S VSB 1            
ROANOKE        CLOUDY    62  60  93 CALM      30.11R                  
RICHMOND       CLOUDY    72  71  97 S5        30.05R FOG              
RALEIGH        FOG       68  67  96 CALM      30.06R VSB 1/4          
$$
ANZ530>537-011200-
MARINE OBSERVATIONS
  
STATION/POSITION TIME  TEMP    WIND        PRES
                       AIR SEA DIR/SP/G
                 (UTC) (F)     (DEG/KT/KT) (MB)
THOMAS PT LIGHT  1100   64 71   50/ 11/ 13 1020.9R
BALT KEY BRIDGE  1042   62      50/ 10/ 13 1020.2R
COVE POINT       1042   66     110/ 16/ 19 1019.0S
LEWISETTA        1042   71 71  100/ 17/ 19 1017.3R
SOLOMONS ISLAND  1042   68 73   70/ 16/ 18   N/A
PINEY POINT      1048           90/ 13/ 17   N/A
$$